Volver al catálogo

STARLINK-35607

ActivoComunicacionesVLEO
NORAD 66163·PAYLOAD·🇺🇸 United States

Lanzado Oct 25, 2025 desde Cape Canaveral Space Force Station

Loading…

Próximos Pases (próximas 24 horas)

TLE

ActualizadoSource: CelesTrak SupGP

Época: Sep 14, 2026, 23:08 UTC

1 66163C 25240T   26257.96437500  .00039848  00000+0  11773-2 0  2570
2 66163  53.1575 259.4826 0001300  95.7670 345.2898 15.34372159    14

Sigue STARLINK-35607 en tiempo real con AllMySat

Download on the App Store